{"data":{"norad_id":55403,"intl_designator":"2023-014N","name":"STARLINK-5597","alt_names":[],"object_type":"PAYLOAD","status":"ACTIVE","operator":null,"country":"US","launch_date":"2023-01-31","launch_site_code":"AFWTR","launch_vehicle":null,"mission":null,"orbit_class":"UNKNOWN","rcs_meters":null,"size_class":null,"mass_kg":null,"dimensions":null,"purposes":["comms"],"wikipedia_slug":null,"has_3d_model":false,"image_url":null,"decayed_at":null,"tle_current":{"epoch":"2026-09-20T11:33:14.479776Z","epoch_age_seconds":98224,"freshness":"FRESH","line1":"1 55403U 23014N   26263.48141759  .00000384  00000+0  39946-4 0  9994","line2":"2 55403  69.9980 293.3053 0003550 274.1554  85.9199 14.98331760201237","mean_motion":14.9833176,"eccentricity":0.000355,"inclination_deg":69.998,"raan_deg":293.3053,"arg_perigee_deg":274.1554,"mean_anomaly_deg":85.9199,"bstar":3.9946e-5,"rev_number":20123,"period_min":96.106886234595,"perigee_km":569.58313175078,"apogee_km":574.51776483907,"semimajor_km":6950.1874482949,"source":"CELESTRAK","updated_at":"2026-09-21T09:00:33.215806Z"}}}